Location: Unspecified
(0.0000°N, 0.0000°E)
Time: 01:58:43
(UTC+00:00)

Envisat - Pass Details

Date: 17 February 2019
Orbit: 764 x 766 km, 98.2° (Epoch: 15 February)

Event Time Altitude Azimuth Distance (km) Brightness Sun altitude
Rises 18:49:32 0° 160° (SSE) 3,230 6.2 -8.7°
Reaches altitude 10° 18:51:53 10° 155° (SSE) 2,301 5.4 -9.3°
Maximum altitude 18:56:50 55° 78° (ENE) 915 3.1 -10.5°
Drops below altitude 10° 19:01:46 10° 1° (N) 2,291 5.3 -11.7°
Sets 19:04:06 0° 357° (N) 3,214 6.1 -12.3°
